This demonstration page uses our WeatherBlox Daily Observations layout. Learn more.

39.29038, -76.61219

Hourly Observations for July 29, 2017

Temp ( °F °C ) Dew Point ( °F °C ) Humidity (%) Winds ( mph kmh ) Pressure ( in mb ) Visibility ( mi km ) Precip ( " mm )
12:54 am 00:54 undefined 72 22.2 69 20.6 91 91 undefined N/A 29.68 1005 N/A 1.11 28.194
1:54 am 01:54 undefined 71 21.7 70 21.1 96 96 undefined N/A 29.68 1005 N/A 0.53 13.462
2:54 am 02:54 undefined 73 22.8 71 21.7 94 94 undefined N/A 29.65 1004 N/A 0.22 5.588
3:54 am 03:54 undefined 73 22.8 68 20 84 84 undefined N/A 29.65 1004 N/A 0 0
4:54 am 04:54 undefined 73 22.8 67 19.4 81 81 undefined N/A 29.68 1005 N/A 0 0
5:54 am 05:54 undefined 73 22.8 68 20 84 84 undefined N/A 29.68 1005 N/A 0 0
6:54 am 06:54 undefined 71 21.7 65 18.3 81 81 undefined N/A 29.68 1005 N/A 0 0
7:54 am 07:54 undefined 71 21.7 64 17.8 79 79 undefined N/A 29.71 1006 N/A 0 0
8:54 am 08:54 undefined 72 22.2 63 17.2 73 73 undefined N/A 29.74 1007 N/A 0 0
9:54 am 09:54 undefined 73 22.8 61 16.1 66 66 undefined N/A 29.74 1007 N/A 0 0
10:54 am 10:54 undefined 72 22.2 60 15.6 66 66 undefined N/A 29.77 1008 N/A 0 0
11:54 am 11:54 undefined 72 22.2 61 16.1 68 68 undefined N/A 29.77 1008 N/A 0 0
12:54 pm 12:54 undefined 72 22.2 61 16.1 68 68 undefined N/A 29.77 1008 N/A 0 0
1:54 pm 13:54 undefined 71 21.7 60 15.6 68 68 undefined N/A 29.77 1008 N/A 0.01 0.254
2:54 pm 14:54 undefined 71 21.7 64 17.8 79 79 undefined N/A 29.8 1009 N/A 0.02 0.508
3:54 pm 15:54 undefined 71 21.7 66 18.9 84 84 undefined N/A 29.8 1009 N/A 0.04 1.016
4:54 pm 16:54 undefined 77 25 62 16.7 60 60 undefined N/A 29.83 1010 N/A 0 0
5:54 pm 17:54 undefined 77 25 59 15 54 54 undefined N/A 29.8 1009 N/A 0 0
6:54 pm 18:54 undefined 76 24.4 60 15.6 58 58 undefined N/A 29.83 1010 N/A 0 0
7:54 pm 19:54 undefined 75 23.9 60 15.6 60 60 undefined N/A 29.85 1011 N/A 0 0
8:54 pm 20:54 undefined 75 23.9 58 14.4 55 55 undefined N/A 29.85 1011 N/A 0 0
9:54 pm 21:54 undefined 73 22.8 57 13.9 57 57 undefined N/A 29.88 1012 N/A 0 0
10:54 pm 22:54 undefined 72 22.2 54 12.2 53 53 undefined N/A 29.88 1012 N/A 0 0
11:54 pm 23:54 undefined 71 21.7 54 12.2 55 55 undefined N/A 29.91 1013 N/A 0 0

Powered by AerisWeather